When you browse on this site, cookies collect data to enhance your experience and personalize the content and advertising you see.
Visit our Privacy Policy to learn more. By continuing to use the site, you agree to this use of cookies and data.
  • In Portugal
  • List of Countries
  • For 7 days
  • Water Temperature
  • Weather Map
  • Weather Widgets
  • user-avatar
    Login

    Hourly Weather Spicino

    Today, 20 January, Monday

    Time Temperature Precipitation Wind Pressure Humidity
    00:00 0°C° 0 mm 5 mps 748 mmHg 88%
    01:00 0°C° 0 mm 5 mps 749 mmHg 88%
    02:00 0°C° 0 mm 5 mps 749 mmHg 88%
    03:00 -1°C° 0 mm 5 mps 749 mmHg 88%
    04:00 -1°C° 0 mm 5 mps 749 mmHg 89%
    05:00 -1°C° 0 mm 4 mps 748 mmHg 90%
    06:00 -1°C° 0 mm 4 mps 749 mmHg 90%
    07:00 -1°C° 0 mm 5 mps 749 mmHg 90%
    08:00 -1°C° 0 mm 5 mps 749 mmHg 90%
    09:00 -1°C° 0 mm 5 mps 749 mmHg 90%
    10:00 -1°C° 0 mm 5 mps 749 mmHg 91%
    11:00 -1°C° 0 mm 5 mps 749 mmHg 91%
    12:00 -1°C° 0 mm 5 mps 749 mmHg 91%
    13:00 -1°C° 0 mm 5 mps 749 mmHg 91%
    14:00 -1°C° 0 mm 5 mps 749 mmHg 91%
    15:00 -1°C° 0 mm 5 mps 749 mmHg 89%
    16:00 -1°C° 0 mm 5 mps 748 mmHg 86%
    17:00 -1°C° 0 mm 5 mps 748 mmHg 84%
    18:00 -1°C° 0 mm 5 mps 748 mmHg 84%
    19:00 -1°C° 0 mm 5 mps 747 mmHg 83%
    20:00 -2°C° 0 mm 5 mps 747 mmHg 83%
    21:00 -2°C° 0 mm 5 mps 746 mmHg 82%
    22:00 -2°C° 0 mm 5 mps 745 mmHg 81%
    23:00 -2°C° 0 mm 5 mps 745 mmHg 80%

    Tomorrow, 21 January, Tuesday

    Time Temperature Precipitation Wind Pressure Humidity
    00:00 -2°C° 0 mm 5 mps 744 mmHg 80%
    01:00 -1°C° 0 mm 5 mps 743 mmHg 81%
    02:00 -1°C° 0 mm 5 mps 743 mmHg 82%
    03:00 -1°C° 0 mm 5 mps 742 mmHg 85%
    04:00 -2°C° 0 mm 6 mps 741 mmHg 87%
    05:00 -2°C° 0 mm 6 mps 740 mmHg 90%
    06:00 -1°C° 0.1 mm 6 mps 739 mmHg 90%
    07:00 -1°C° 0.1 mm 6 mps 739 mmHg 90%
    08:00 +1°C° 0.1 mm 6 mps 738 mmHg 91%
    09:00 +1°C° 0 mm 6 mps 737 mmHg 91%
    10:00 +2°C° 0 mm 6 mps 737 mmHg 91%
    11:00 +2°C° 0 mm 6 mps 736 mmHg 91%
    12:00 +3°C° 0.1 mm 6 mps 736 mmHg 91%
    13:00 +3°C° 0.1 mm 5 mps 735 mmHg 91%
    14:00 +3°C° 0.1 mm 5 mps 735 mmHg 91%
    15:00 +3°C° 1 mm 5 mps 734 mmHg 92%
    16:00 +3°C° 1 mm 5 mps 733 mmHg 93%
    17:00 +3°C° 1 mm 5 mps 732 mmHg 93%
    18:00 +3°C° 0.4 mm 6 mps 733 mmHg 89%
    19:00 +2°C° 0.4 mm 6 mps 733 mmHg 85%
    20:00 +2°C° 0.4 mm 7 mps 733 mmHg 80%
    21:00 +1°C° 0 mm 6 mps 733 mmHg 78%
    22:00 -1°C° 0 mm 6 mps 733 mmHg 75%
    23:00 -2°C° 0 mm 6 mps 733 mmHg 72%

    Day after tomorrow, 22 January, Wednesday

    Time Temperature Precipitation Wind Pressure Humidity
    00:00 -3°C° 0 mm 6 mps 733 mmHg 73%
    01:00 -3°C° 0 mm 6 mps 733 mmHg 75%
    02:00 -3°C° 0 mm 6 mps 733 mmHg 76%
    03:00 -3°C° 0 mm 6 mps 732 mmHg 77%
    04:00 -3°C° 0 mm 6 mps 731 mmHg 79%
    05:00 -4°C° 0 mm 6 mps 731 mmHg 80%
    06:00 -4°C° 0.1 mm 6 mps 730 mmHg 80%
    07:00 -4°C° 0.1 mm 6 mps 730 mmHg 80%
    08:00 -4°C° 0.1 mm 6 mps 730 mmHg 79%
    09:00 -3°C° 0.2 mm 6 mps 729 mmHg 79%
    10:00 -3°C° 0.2 mm 6 mps 729 mmHg 79%
    11:00 -3°C° 0.2 mm 6 mps 729 mmHg 78%
    12:00 -3°C° 0.1 mm 6 mps 729 mmHg 74%
    13:00 -3°C° 0.1 mm 6 mps 729 mmHg 70%
    14:00 -3°C° 0.1 mm 6 mps 729 mmHg 66%
    15:00 -4°C° 0 mm 6 mps 729 mmHg 69%
    16:00 -4°C° 0 mm 5 mps 729 mmHg 71%
    17:00 -5°C° 0 mm 5 mps 729 mmHg 74%
    18:00 -5°C° 0.1 mm 6 mps 729 mmHg 76%
    19:00 -5°C° 0.1 mm 6 mps 730 mmHg 78%
    20:00 -5°C° 0.1 mm 6 mps 730 mmHg 80%
    21:00 -6°C° 0 mm 6 mps 731 mmHg 75%
    22:00 -6°C° 0 mm 6 mps 731 mmHg 71%
    23:00 -8°C° 0 mm 6 mps 732 mmHg 66%

    23 January, Thursday

    Time Temperature Precipitation Wind Pressure Humidity
    00:00 -8°C° 0 mm 6 mps 733 mmHg 66%
    01:00 -8°C° 0 mm 6 mps 733 mmHg 66%
    02:00 -9°C° 0 mm 6 mps 734 mmHg 66%
    03:00 -9°C° 0 mm 6 mps 735 mmHg 63%
    04:00 -9°C° 0 mm 6 mps 735 mmHg 60%
    05:00 -9°C° 0 mm 6 mps 735 mmHg 57%
    06:00 -9°C° 0 mm 6 mps 736 mmHg 56%
    07:00 -9°C° 0 mm 6 mps 737 mmHg 55%
    08:00 -9°C° 0 mm 6 mps 737 mmHg 53%
    09:00 -9°C° 0 mm 6 mps 738 mmHg 52%
    10:00 -8°C° 0 mm 6 mps 738 mmHg 51%
    11:00 -8°C° 0 mm 7 mps 739 mmHg 49%
    12:00 -8°C° 0 mm 6 mps 739 mmHg 50%
    13:00 -8°C° 0 mm 6 mps 739 mmHg 50%
    14:00 -8°C° 0 mm 6 mps 740 mmHg 51%
    15:00 -7°C° 0 mm 4 mps 740 mmHg 55%
    16:00 -6°C° 0 mm 3 mps 740 mmHg 58%
    17:00 -6°C° 0 mm 2 mps 740 mmHg 62%
    18:00 -6°C° 0 mm 2 mps 740 mmHg 65%
    19:00 -6°C° 0 mm 3 mps 740 mmHg 67%
    20:00 -6°C° 0 mm 3 mps 740 mmHg 70%
    21:00 -6°C° 0 mm 3 mps 739 mmHg 73%
    22:00 -5°C° 0 mm 4 mps 739 mmHg 76%
    23:00 -5°C° 0 mm 4 mps 738 mmHg 79%

    24 January, Friday

    Time Temperature Precipitation Wind Pressure Humidity
    00:00 -6°C° 0.3 mm 5 mps 737 mmHg 84%
    01:00 -6°C° 0.3 mm 5 mps 736 mmHg 88%
    02:00 -5°C° 0.3 mm 6 mps 735 mmHg 92%
    03:00 -5°C° 0.6 mm 6 mps 734 mmHg 93%
    04:00 -5°C° 0.6 mm 6 mps 733 mmHg 93%
    05:00 -4°C° 0.6 mm 5 mps 732 mmHg 94%
    06:00 -2°C° 0.4 mm 5 mps 731 mmHg 93%
    07:00 -1°C° 0.4 mm 5 mps 731 mmHg 92%
    08:00 +1°C° 0.4 mm 5 mps 731 mmHg 91%
    09:00 +1°C° 0 mm 5 mps 731 mmHg 88%
    10:00 +1°C° 0 mm 6 mps 732 mmHg 84%
    11:00 +1°C° 0 mm 6 mps 732 mmHg 80%
    12:00 0°C° 0 mm 5 mps 732 mmHg 79%
    13:00 0°C° 0 mm 5 mps 732 mmHg 78%
    14:00 0°C° 0 mm 4 mps 733 mmHg 77%
    15:00 -1°C° 0 mm 4 mps 733 mmHg 82%
    16:00 -1°C° 0 mm 3 mps 733 mmHg 87%
    17:00 -2°C° 0 mm 3 mps 734 mmHg 91%
    18:00 -2°C° 0 mm 3 mps 734 mmHg 92%
    19:00 -2°C° 0 mm 2 mps 734 mmHg 93%
    20:00 -2°C° 0 mm 2 mps 734 mmHg 94%
    21:00 -2°C° 0 mm 2 mps 734 mmHg 94%
    22:00 -2°C° 0 mm 2 mps 734 mmHg 95%
    23:00 -2°C° 0 mm 2 mps 734 mmHg 96%

    25 January, Saturday

    Time Temperature Precipitation Wind Pressure Humidity
    00:00 -2°C° 0 mm 2 mps 734 mmHg 97%
    01:00 -2°C° 0 mm 2 mps 733 mmHg 97%
    02:00 -2°C° 0 mm 2 mps 733 mmHg 98%
    03:00 -1°C° 0.5 mm 2 mps 733 mmHg 98%
    04:00 -1°C° 0.5 mm 2 mps 732 mmHg 98%
    05:00 +1°C° 0.5 mm 2 mps 732 mmHg 98%
    06:00 0°C° 0.4 mm 3 mps 732 mmHg 97%
    07:00 +1°C° 0.4 mm 3 mps 731 mmHg 97%
    08:00 +2°C° 0.4 mm 3 mps 731 mmHg 97%
    09:00 +2°C° 0.2 mm 3 mps 731 mmHg 96%
    10:00 +2°C° 0.2 mm 3 mps 732 mmHg 95%
    11:00 +2°C° 0.2 mm 3 mps 732 mmHg 95%
    12:00 +2°C° 0.3 mm 3 mps 732 mmHg 95%
    13:00 +2°C° 0.3 mm 3 mps 732 mmHg 96%
    14:00 +2°C° 0.3 mm 3 mps 732 mmHg 96%
    15:00 +1°C° 0.2 mm 3 mps 733 mmHg 96%
    16:00 +1°C° 0.2 mm 3 mps 733 mmHg 96%
    17:00 +2°C° 0.2 mm 2 mps 734 mmHg 96%
    18:00 +1°C° 0 mm 2 mps 734 mmHg 96%
    19:00 +1°C° 0 mm 2 mps 734 mmHg 96%
    20:00 +1°C° 0 mm 2 mps 734 mmHg 96%
    21:00 +1°C° 0 mm 2 mps 734 mmHg 95%
    22:00 0°C° 0 mm 3 mps 735 mmHg 95%
    23:00 0°C° 0 mm 3 mps 735 mmHg 95%
    Show more